HST
1 20580U 90037B   24131.69899016  .00009181  00000-0  44017-3 0  9991
2 20580  28.4681 236.2074 0002356   1.0080 359.0517 15.17176780671338
ISS (ZARYA)
1 25544U 98067A   24132.36613887  .00017080  00000-0  29475-3 0  9990
2 25544  51.6381 137.9361 0003535 157.3552 342.5950 15.51115688452831
CXO
1 25867U 99040B   24133.48325748  .00000624  00000-0  00000+0 0  9995
2 25867  40.3932 157.1734 8928898 294.0177 359.6485  0.37809329 25582